KB1DML-5 Weather Reports


time (UTC)temp
C
wind
direction
speed
KPH
gust
KPH
rain 1hr
cm
rain 24hr
cm
rain mn
cm
humidity
%
barometer
mb
20260507211016 16 293 12.9 24.1 0.00 0.18 0.18 38 1005.8
20260507210515 16 293 16.1 29.0 0.00 0.18 0.18 38 1005.8
20260507210015 17 315 8.0 19.3 0.00 0.18 0.18 41 1005.8
20260507205516 16 315 6.4 14.5 0.00 0.18 0.18 40 1005.8
20260507205015 16 293 17.7 27.4 0.00 0.18 0.18 40 1005.9
20260507204615 16 293 20.9 27.4 0.00 0.18 0.18 41 1005.9
20260507204015 17 293 19.3 30.6 0.00 0.18 0.18 38 1006.0
20260507203536 17 293 16.1 27.4 0.00 0.18 0.18 38 1006.0
20260507203035 17 270 12.9 25.7 0.00 0.18 0.18 39 1005.8
20260507202515 17 270 16.1 30.6 0.00 0.18 0.18 37 1005.7
20260507202016 17 293 22.5 35.4 0.00 0.18 0.18 39 1005.7
20260507201515 17 293 20.9 32.2 0.00 0.18 0.18 37 1005.6
20260507201015 17 293 19.3 29.0 0.00 0.18 0.18 41 1005.7
20260507200515 17 293 12.9 20.9 0.00 0.18 0.18 40 1005.7
20260507200016 17 293 14.5 24.1 0.00 0.18 0.18 40 1005.8
20260507195515 17 293 20.9 29.0 0.00 0.18 0.18 38 1005.7
20260507195015 17 293 16.1 22.5 0.00 0.18 0.18 39 1005.8
20260507194515 17 293 12.9 24.1 0.00 0.18 0.18 35 1005.8
20260507194015 17 293 19.3 27.4 0.00 0.18 0.18 35 1005.8
20260507193515 17 293 20.9 27.4 0.00 0.18 0.18 39 1005.7
20260507193015 16 293 24.1 33.8 0.00 0.18 0.18 37 1005.7
20260507192536 17 293 19.3 33.8 0.00 0.18 0.18 37 1005.9
20260507192035 16 293 16.1 24.1 0.00 0.18 0.18 37 1005.9
20260507191515 16 315 17.7 25.7 0.00 0.18 0.18 36 1005.9
20260507191016 17 293 11.3 20.9 0.00 0.18 0.18 39 1006.1
20260507190515 17 293 17.7 27.4 0.00 0.18 0.18 37 1006.1
20260507190015 17 293 19.3 27.4 0.00 0.18 0.18 36 1006.1
20260507185515 17 293 24.1 37.0 0.00 0.18 0.18 38 1006.2
20260507185016 17 293 17.7 32.2 0.00 0.18 0.18 36 1006.2
20260507184515 17 293 12.9 20.9 0.00 0.18 0.18 40 1006.2
20260507184015 17 293 12.9 25.7 0.00 0.18 0.18 38 1006.1
20260507183555 17 338 8.0 17.7 0.00 0.18 0.18 40 1006.1
20260507183016 17 315 6.4 16.1 0.00 0.18 0.18 42 1006.2
20260507182515 17 293 6.4 19.3 0.00 0.18 0.18 43 1006.2
20260507182017 17 270 4.8 16.1 0.00 0.18 0.18 48 1006.3
20260507181537 17 180 6.4 16.1 0.00 0.18 0.18 56 1006.3
20260507181017 17 180 9.7 16.1 0.00 0.18 0.18 56 1006.4
20260507180517 17 203 11.3 17.7 0.00 0.18 0.18 56 1006.3
20260507180017 17 203 9.7 14.5 0.00 0.18 0.18 56 1006.4
20260507175517 17 180 9.7 19.3 0.00 0.18 0.18 57 1006.4
20260507175058 17 180 14.5 20.9 0.00 0.18 0.18 57 1006.5
20260507174517 17 180 16.1 20.9 0.00 0.18 0.18 57 1006.5
20260507174017 16 180 14.5 22.5 0.00 0.18 0.18 58 1006.5
20260507173518 16 180 6.4 14.5 0.00 0.18 0.18 60 1006.5
20260507173017 16 180 12.9 19.3 0.00 0.18 0.18 59 1006.6
20260507172537 15 180 16.1 19.3 0.00 0.18 0.18 60 1006.6
20260507172017 15 180 16.1 20.9 0.00 0.18 0.18 60 1006.7
20260507171518 16 180 17.7 22.5 0.00 0.18 0.18 59 1006.7
20260507171017 16 180 16.1 22.5 0.00 0.18 0.18 59 1006.9
20260507170517 16 180 14.5 22.5 0.00 0.18 0.18 59 1006.9
20260507170017 16 180 19.3 25.7 0.00 0.18 0.18 58 1006.9
20260507165517 16 180 19.3 29.0 0.00 0.18 0.18 57 1006.9
20260507165017 16 180 20.9 27.4 0.00 0.18 0.18 58 1007.0
20260507164516 16 180 19.3 25.7 0.00 0.18 0.18 58 1007.2
20260507164017 16 180 19.3 25.7 0.00 0.18 0.18 59 1007.2
20260507163538 15 180 19.3 24.1 0.00 0.18 0.18 59 1007.3
20260507163017 16 180 17.7 22.5 0.00 0.18 0.18 61 1007.3
20260507162557 16 180 22.5 25.7 0.00 0.18 0.18 59 1007.3
20260507162016 16 180 19.3 24.1 0.00 0.18 0.18 58 1007.3
20260507161518 17 203 19.3 24.1 0.00 0.18 0.18 56 1007.6
20260507161017 17 180 17.7 25.7 0.00 0.18 0.18 55 1007.4
20260507160517 17 203 12.9 20.9 0.00 0.18 0.18 57 1007.5
20260507160017 17 203 11.3 16.1 0.00 0.18 0.18 59 1007.7
20260507155518 16 180 14.5 20.9 0.00 0.18 0.18 58 1007.9
20260507155017 16 158 8.0 16.1 0.00 0.18 0.18 59 1007.7
20260507154517 16 180 17.7 24.1 0.00 0.18 0.18 59 1007.8
20260507154017 16 203 6.4 16.1 0.00 0.18 0.18 61 1007.8
20260507153517 16 203 4.8 11.3 0.00 0.18 0.18 62 1007.8
20260507153017 15 338 4.8 8.0 0.00 0.18 0.18 57 1007.9
20260507152517 15 338 4.8 11.3 0.00 0.18 0.18 59 1007.9
20260507152016 15 315 4.8 14.5 0.00 0.18 0.18 59 1007.9
20260507151537 15 338 6.4 12.9 0.00 0.18 0.18 58 1008.1
20260507151017 15 338 8.0 12.9 0.00 0.18 0.18 58 1008.1
20260507150516 15 338 8.0 16.1 0.00 0.18 0.18 58 1008.3
20260507150017 15 338 8.0 11.3 0.00 0.18 0.18 61 1008.4
20260507145516 15 338 4.8 9.7 0.00 0.18 0.18 62 1008.4
20260507145017 14 338 6.4 11.3 0.00 0.18 0.18 61 1008.3
20260507144516 14 338 6.4 11.3 0.00 0.18 0.18 61 1008.4
20260507144017 14 338 6.4 12.9 0.00 0.18 0.18 62 1008.5
20260507143517 14 338 6.4 12.9 0.00 0.18 0.18 62 1008.6
20260507143017 15 338 6.4 11.3 0.00 0.18 0.18 62 1008.5
20260507142517 15 23 4.8 8.0 0.00 0.18 0.18 65 1008.5
20260507142017 14 68 3.2 6.4 0.00 0.18 0.18 68 1008.4
20260507141516 13 338 3.2 6.4 0.00 0.18 0.18 70 1008.4
20260507141016 13 338 4.8 6.4 0.00 0.18 0.18 68 1008.4
20260507140536 13 338 6.4 8.0 0.00 0.18 0.18 68 1008.4
20260507140038 13 338 6.4 11.3 0.00 0.18 0.18 70 1008.6
20260507135517 13 338 6.4 9.7 0.00 0.18 0.18 70 1008.5
20260507135016 13 293 3.2 9.7 0.00 0.18 0.18 72 1008.5
20260507134517 12 338 6.4 16.1 0.00 0.18 0.18 72 1008.5
20260507134016 12 338 6.4 16.1 0.00 0.18 0.18 72 1008.5
20260507133517 12 338 6.4 11.3 0.00 0.18 0.18 73 1008.6
20260507133016 12 338 4.8 8.0 0.00 0.18 0.18 74 1008.7
20260507132517 12 338 6.4 14.5 0.00 0.18 0.18 76 1008.8
20260507132036 11 338 6.4 12.9 0.00 0.18 0.18 76 1008.8
20260507131516 11 338 4.8 11.3 0.00 0.18 0.18 78 1008.9
20260507131017 11 338 8.0 14.5 0.00 0.18 0.18 79 1009.0
20260507130516 11 338 8.0 12.9 0.00 0.18 0.18 80 1009.0
20260507130016 10 315 4.8 12.9 0.00 0.18 0.18 84 1009.1
20260507125516 10 338 4.8 11.3 0.00 0.18 0.18 84 1009.1
20260507125017 10 338 8.0 12.9 0.00 0.18 0.18 84 1008.9
20260507124516 10 338 6.4 12.9 0.00 0.18 0.18 86 1008.9
20260507124016 10 23 4.8 11.3 0.00 0.18 0.18 88 1008.7
20260507123556 9 23 3.2 8.0 0.00 0.18 0.18 88 1008.8
20260507123017 9 338 4.8 8.0 0.00 0.18 0.18 88 1008.9
20260507122516 10 338 4.8 11.3 0.00 0.18 0.18 88 1008.8
20260507122016 9 315 3.2 8.0 0.00 0.18 0.18 90 1008.9
20260507121516 9 23 3.2 4.8 0.00 0.18 0.18 90 1008.7
20260507121057 9 23 3.2 8.0 0.00 0.18 0.18 90 1008.9
20260507120516 9 315 3.2 9.7 0.00 0.18 0.18 90 1008.8
20260507120016 9 45 3.2 4.8 0.00 0.18 0.18 90 1008.7
20260507115516 8 315 3.2 8.0 0.00 0.18 0.18 89 1008.6
20260507115037 8 338 4.8 8.0 0.00 0.18 0.18 89 1008.7
20260507114516 8 315 3.2 8.0 0.00 0.18 0.18 89 1008.7
20260507114016 8 23 3.2 6.4 0.00 0.18 0.18 89 1008.6
20260507113517 8 23 3.2 6.4 0.00 0.18 0.18 89 1008.7
20260507113016 8 23 3.2 6.4 0.00 0.18 0.18 89 1008.5
20260507112516 8 315 3.2 8.0 0.00 0.18 0.18 89 1008.5
20260507112016 8 338 4.8 11.3 0.00 0.18 0.18 89 1008.4
20260507111517 8 315 4.8 11.3 0.03 0.18 0.18 89 1008.6
20260507111017 8 315 3.2 6.4 0.03 0.18 0.18 89 1008.6
20260507110516 8 315 3.2 6.4 0.05 0.18 0.18 89 1008.5
20260507110016 8 23 3.2 6.4 0.05 0.18 0.18 89 1008.8
20260507105517 8 293 6.4 12.9 0.05 0.18 0.18 89 1008.8
20260507105016 8 293 8.0 12.9 0.05 0.18 0.18 89 1008.9
20260507104516 8 45 3.2 9.7 0.05 0.18 0.18 90 1008.6
20260507104016 8 45 3.2 6.4 0.05 0.18 0.18 90 1008.3
20260507103517 8 45 3.2 6.4 0.08 0.18 0.18 90 1008.6
20260507103016 8 315 4.8 9.7 0.10 0.18 0.18 89 1008.6
20260507102536 8 338 4.8 12.9 0.13 0.18 0.18 89 1008.6
20260507102036 8 338 4.8 8.0 0.15 0.18 0.18 89 1008.6
20260507101517 8 338 4.8 9.7 0.13 0.15 0.15 89 1008.6
20260507101016 8 293 4.8 9.7 0.13 0.15 0.15 88 1008.4
20260507100516 8 338 4.8 11.3 0.10 0.13 0.13 88 1008.4
20260507100017 8 338 6.4 14.5 0.10 0.13 0.13 88 1008.2
20260507095517 8 338 4.8 12.9 0.10 0.13 0.13 88 1008.3
20260507095016 9 315 6.4 16.1 0.10 0.13 0.13 87 1008.5
20260507094536 9 315 6.4 17.7 0.10 0.13 0.13 88 1008.4
20260507094016 9 315 6.4 16.1 0.10 0.13 0.13 87 1008.4
20260507093516 9 315 9.7 17.7 0.08 0.10 0.10 87 1008.4
20260507093016 9 293 11.3 17.7 0.08 0.08 0.08 87 1008.3
20260507092516 10 293 12.9 19.3 0.05 0.05 0.05 87 1008.4
20260507092016 10 293 16.1 20.9 0.03 0.03 0.03 86 1008.4
20260507091537 10 293 16.1 20.9 0.03 0.03 0.03 86 1008.5
20260507091016 10 293 16.1 22.5 0.03 0.03 0.03 85 1008.2
20260507090516 10 293 16.1 22.5 0.03 0.03 0.03 86 1008.2
20260507090037 10 293 17.7 22.5 0.03 0.03 0.03 86 1008.2
20260507085516 10 293 19.3 27.4 0.03 0.03 0.03 85 1008.0
20260507085015 10 293 16.1 24.1 0.03 0.03 0.03 86 1007.8
20260507084516 10 293 14.5 27.4 0.03 0.03 0.03 86 1007.8
20260507084017 10 293 17.7 25.7 0.03 0.03 0.03 87 1007.8
20260507083515 10 293 17.7 24.1 0.03 0.03 0.03 87 1007.7
20260507083016 10 293 17.7 25.7 0.00 0.00 0.00 86 1007.6
20260507082516 10 293 22.5 32.2 0.00 0.00 0.00 86 1007.8
20260507082017 10 293 24.1 32.2 0.00 0.00 0.00 86 1007.8
20260507081516 10 293 25.7 33.8 0.00 0.00 0.00 86 1007.9
20260507081016 10 293 20.9 32.2 0.00 0.00 0.00 86 1007.8
20260507080516 10 293 19.3 29.0 0.00 0.00 0.00 85 1007.8
20260507080016 10 293 22.5 29.0 0.00 0.00 0.00 84 1007.7
20260507075516 10 293 22.5 32.2 0.00 0.00 0.00 84 1007.7
20260507075036 11 293 22.5 29.0 0.00 0.00 0.00 84 1007.8
20260507074536 11 293 19.3 27.4 0.00 0.00 0.00 84 1007.4
20260507074017 11 293 19.3 25.7 0.00 0.00 0.00 84 1007.2
20260507073516 11 293 17.7 24.1 0.00 0.00 0.00 84 1007.5
20260507073016 11 293 17.7 22.5 0.00 0.00 0.00 84 1007.4
20260507072536 11 293 16.1 24.1 0.00 0.00 0.00 84 1007.4
20260507072016 11 293 16.1 24.1 0.00 0.00 0.00 83 1007.5
20260507071515 11 293 16.1 22.5 0.00 0.00 0.00 84 1007.4
20260507071015 11 270 16.1 25.7 0.00 0.00 0.00 85 1007.3
20260507070556 11 293 14.5 25.7 0.00 0.00 0.00 86 1007.3
20260507070036 11 293 14.5 19.3 0.00 0.00 0.00 87 1007.4
20260507065515 11 270 11.3 17.7 0.00 0.00 0.00 88 1007.4
20260507065016 11 293 12.9 19.3 0.00 0.00 0.00 88 1007.3
20260507064516 11 293 12.9 17.7 0.00 0.00 0.00 88 1007.1
20260507064016 11 293 12.9 17.7 0.00 0.00 0.00 88 1007.0
20260507063516 11 293 11.3 19.3 0.00 0.00 0.00 89 1006.9
20260507063015 11 293 8.0 19.3 0.00 0.00 0.00 89 1006.8
20260507062516 11 315 8.0 16.1 0.00 0.00 0.00 89 1007.1
20260507062036 11 293 11.3 17.7 0.00 0.00 0.00 89 1007.2
20260507061515 11 293 17.7 24.1 0.00 0.00 0.00 89 1007.4
20260507061015 11 293 12.9 22.5 0.00 0.00 0.00 90 1007.4
20260507060516 11 293 9.7 16.1 0.00 0.00 0.00 90 1007.2
20260507060015 11 315 6.4 16.1 0.00 0.00 0.00 90 1007.4
20260507055515 11 293 12.9 22.5 0.00 0.00 0.00 90 1007.5
20260507055016 11 293 11.3 19.3 0.00 0.00 0.00 90 1007.5
20260507054515 11 293 9.7 16.1 0.00 0.00 0.00 90 1007.5
20260507054015 11 315 8.0 19.3 0.00 0.00 0.00 90 1007.3
20260507053515 11 315 8.0 16.1 0.00 0.00 0.00 90 1007.0
20260507053016 11 338 9.7 17.7 0.00 0.00 0.00 91 1006.9
20260507052516 11 315 8.0 16.1 0.00 0.00 0.00 90 1007.2
20260507052015 12 338 8.0 17.7 0.00 0.00 0.00 90 1007.3
20260507051535 12 315 6.4 14.5 0.00 0.00 0.00 90 1007.2
20260507051016 13 315 8.0 16.1 0.00 0.00 0.00 90 1007.2
20260507050515 13 293 11.3 22.5 0.00 0.00 0.00 92 1007.2
20260507050015 13 270 12.9 22.5 0.00 0.00 0.00 93 1007.0
20260507045535 14 270 12.9 19.3 0.00 0.00 0.00 93 1006.9
20260507045016 14 270 12.9 20.9 0.00 0.00 0.00 94 1006.8
20260507044516 14 270 9.7 19.3 0.00 0.00 0.00 95 1007.0
20260507044015 14 248 4.8 9.7 0.00 0.00 0.00 94 1007.1
20260507043516 13 225 3.2 11.3 0.00 0.00 0.00 94 1007.0
20260507043016 13 225 6.4 11.3 0.00 0.00 0.00 94 1007.1
20260507042516 13 203 6.4 9.7 0.00 0.00 0.00 94 1006.9
20260507042016 13 203 9.7 14.5 0.00 0.00 0.00 94 1007.1
20260507041516 13 203 9.7 11.3 0.00 0.00 0.00 94 1007.1
20260507041016 13 203 12.9 16.1 0.00 0.00 0.00 94 1007.1
20260507040516 13 203 11.3 16.1 0.00 0.00 0.00 94 1007.1
20260507040015 13 203 9.7 14.5 0.00 0.00 0.00 94 1006.9
20260507035516 13 203 12.9 16.1 0.00 0.00 0.00 93 1007.1
20260507035037 13 203 12.9 16.1 0.00 0.00 0.00 93 1007.1
20260507034517 13 203 12.9 16.1 0.00 0.00 0.00 93 1007.2
20260507034017 13 203 16.1 19.3 0.00 0.00 0.00 93 1007.0
20260507033516 13 203 14.5 19.3 0.00 0.00 0.00 93 1006.9
20260507033036 13 203 16.1 20.9 0.00 0.00 0.00 93 1006.8
20260507032516 13 203 16.1 24.1 0.00 0.00 0.00 94 1006.7
20260507032016 13 203 16.1 19.3 0.00 0.00 0.00 94 1006.6
20260507031516 13 203 16.1 20.9 0.00 0.00 0.00 94 1006.5
20260507031016 13 203 16.1 22.5 0.00 0.00 0.00 94 1006.4
20260507030536 13 203 17.7 24.1 0.00 0.00 0.00 94 1006.5
20260507030016 13 203 16.1 20.9 0.00 0.00 0.00 93 1006.6
20260507025517 13 203 17.7 22.5 0.00 0.00 0.00 94 1006.5
20260507025036 13 203 16.1 22.5 0.00 0.00 0.00 93 1006.6
20260507024516 13 203 17.7 22.5 0.00 0.00 0.00 93 1006.7
20260507024016 13 203 19.3 25.7 0.00 0.00 0.00 93 1006.8
20260507023537 13 203 19.3 25.7 0.00 0.00 0.00 93 1006.7
20260507023016 13 203 17.7 22.5 0.00 0.00 0.00 93 1006.8
20260507022516 13 203 19.3 27.4 0.00 0.00 0.00 93 1006.7
20260507022016 13 203 19.3 27.4 0.00 0.00 0.00 93 1006.6
20260507021516 13 203 20.9 25.7 0.00 0.00 0.00 93 1006.9
20260507021016 13 203 20.9 25.7 0.00 0.00 0.00 93 1006.8
20260507020517 13 203 20.9 29.0 0.00 0.00 0.00 93 1006.9
20260507020016 13 203 20.9 32.2 0.00 0.00 0.00 93 1006.9
20260507015516 13 203 20.9 27.4 0.00 0.00 0.00 93 1007.0
20260507015016 13 203 22.5 27.4 0.00 0.00 0.00 93 1007.0
20260507014537 13 203 22.5 30.6 0.00 0.00 0.00 93 1007.0
20260507014016 13 203 22.5 29.0 0.00 0.00 0.00 93 1007.0
20260507013516 13 203 22.5 35.4 0.00 0.00 0.00 93 1007.2
20260507013037 13 203 20.9 29.0 0.00 0.00 0.00 93 1007.2
20260507012516 13 203 24.1 30.6 0.00 0.00 0.00 93 1007.1
20260507012016 13 203 24.1 30.6 0.00 0.00 0.00 93 1007.3
20260507011516 13 203 25.7 32.2 0.00 0.00 0.00 93 1007.2
20260507011037 13 203 27.4 37.0 0.00 0.00 0.00 92 1007.3
20260507010516 13 203 27.4 37.0 0.00 0.00 0.00 92 1007.2
20260507010016 13 203 27.4 35.4 0.00 0.00 0.00 92 1007.2
20260507005517 13 203 27.4 35.4 0.00 0.00 0.00 92 1007.3
20260507005016 13 203 25.7 33.8 0.00 0.00 0.00 92 1007.3
20260507004556 13 203 25.7 35.4 0.00 0.00 0.00 92 1007.2
20260507004016 13 203 27.4 40.2 0.00 0.00 0.00 92 1007.2
20260507003536 13 203 29.0 40.2 0.00 0.00 0.00 92 1007.1
20260507003016 13 203 29.0 43.5 0.00 0.00 0.00 92 1007.1
20260507002516 13 203 25.7 35.4 0.00 0.00 0.00 92 1007.1
20260507002017 13 203 29.0 35.4 0.00 0.00 0.00 92 1007.1
20260507001516 13 203 27.4 35.4 0.00 0.00 0.00 92 1007.2
20260507001015 13 203 29.0 38.6 0.00 0.00 0.00 92 1007.1
20260507000516 13 203 27.4 37.0 0.00 0.00 0.00 92 1007.1
20260507000016 13 203 25.7 38.6 0.00 0.00 0.00 92 1007.2
20260506235516 13 203 29.0 46.7 0.00 0.00 0.00 92 1007.2
20260506235016 13 203 27.4 35.4 0.00 0.00 0.00 92 1007.0
20260506234516 13 203 24.1 33.8 0.00 0.00 0.00 92 1006.9
20260506234037 13 203 25.7 32.2 0.00 0.00 0.00 92 1007.1
20260506233516 13 203 29.0 38.6 0.00 0.00 0.00 92 1007.1
20260506233016 13 203 30.6 35.4 0.00 0.00 0.00 92 1007.2
20260506232516 14 203 29.0 38.6 0.00 0.00 0.00 92 1007.3
20260506232016 14 203 30.6 41.8 0.00 0.00 0.00 92 1007.1
20260506231515 14 203 33.8 43.5 0.00 0.00 0.00 92 1007.3
20260506231016 14 203 32.2 40.2 0.00 0.00 0.00 92 1007.2
20260506230537 13 203 30.6 40.2 0.00 0.00 0.00 92 1007.3
20260506230016 13 203 27.4 35.4 0.00 0.00 0.00 92 1007.3
20260506225516 13 203 29.0 37.0 0.00 0.00 0.00 91 1007.2
20260506225016 14 203 27.4 37.0 0.00 0.00 0.00 91 1007.2
20260506224516 14 180 27.4 38.6 0.00 0.00 0.00 91 1007.1
20260506224016 14 203 27.4 37.0 0.00 0.00 0.00 91 1007.4
20260506223516 14 203 29.0 38.6 0.00 0.00 0.00 91 1007.4
20260506223015 14 203 30.6 40.2 0.00 0.00 0.00 91 1007.6
20260506222516 15 203 32.2 45.1 0.00 0.00 0.00 91 1007.5
20260506222015 15 203 29.0 45.1 0.00 0.00 0.00 90 1007.6
20260506221515 15 203 29.0 38.6 0.00 0.00 0.00 90 1007.7
20260506221035 15 203 32.2 45.1 0.00 0.00 0.00 90 1007.8
20260506220516 15 203 30.6 40.2 0.00 0.00 0.00 89 1007.8
20260506220015 15 203 30.6 43.5 0.00 0.00 0.00 89 1007.8
20260506215515 15 203 32.2 41.8 0.00 0.00 0.00 89 1007.9
20260506215015 15 203 32.2 45.1 0.00 0.00 0.00 89 1007.8
20260506214536 15 203 29.0 40.2 0.00 0.00 0.00 89 1008.0
20260506214016 15 203 32.2 41.8 0.00 0.00 0.00 89 1007.9
20260506213515 15 203 32.2 41.8 0.00 0.00 0.00 89 1007.9
20260506213016 15 203 32.2 40.2 0.00 0.00 0.00 88 1008.0
20260506212516 15 203 33.8 43.5 0.00 0.00 0.00 88 1008.0
20260506212015 15 203 32.2 40.2 0.00 0.00 0.00 87 1008.1
20260506211515 15 203 29.0 37.0 0.00 0.00 0.00 86 1008.2